Wind_Speed
11 12 12 12 13 14 16 18 19 21 23 24 25 26 27 28 29 31 33 35 37 37 32 30 21 12 4 4 5 1 2 5 6 5 8 5 5 4 7 3 5 9 3 3 2 4 4
12 12 13 13 14 15 17 19 21 22 24 24 25 26 27 28 29 31 33 35 36 36 31 23 14 9 4 7 3 0 1 6 6 7 6 6 3 3 4 3 5 3 4 3 5 6 6
15 14 14 14 15 16 17 18 20 22 23 24 25 26 26 27 28 30 32 34 34 33 31 15 9 5 6 7 2 2 2 6 5 5 5 1 3 7 2 4 1 4 7 7 8 8 5
17 16 16 16 17 18 18 20 21 22 24 25 26 27 26 26 27 28 31 32 31 31 18 8 5 4 6 3 3 6 5 6 5 5 4 2 3 6 5 0 5 9 6 10 11 9 5
16 16 16 16 18 19 19 20 22 23 25 27 27 28 26 27 26 28 30 27 29 17 8 4 3 5 5 3 2 2 6 4 5 6 3 2 4 4 6 10 9 8 12 7 6 10 5
15 15 16 17 18 18 19 21 23 24 26 28 29 29 28 27 26 26 28 26 10 5 3 4 5 4 6 2 2 2 4 6 4 4 6 6 5 8 6 7 8 8 8 10 12 8 10
13 14 15 16 18 18 20 21 23 25 27 29 31 31 29 28 26 25 24 8 5 5 4 7 5 5 4 5 3 5 4 9 6 5 7 2 8 8 9 6 10 8 9 12 9 4 10
12 13 14 16 17 18 19 21 24 26 28 30 32 33 31 28 26 15 7 4 6 4 10 9 12 14 15 5 4 5 7 9 8 8 3 7 9 7 2 6 8 9 10 10 10 3 9
10 12 13 15 17 19 20 22 24 27 29 31 34 34 33 30 13 8 7 7 8 4 6 6 5 5 3 12 7 7 10 5 7 6 7 9 6 3 7 9 9 12 11 7 7 3 11
9 12 14 15 17 19 21 23 25 27 29 32 34 34 32 31 3 12 1 8 13 4 5 4 5 4 6 6 7 4 8 4 6 7 4 7 2 4 8 6 4 7 2 7 6 7 9
7 10 12 15 17 19 21 23 25 28 30 32 33 32 29 20 13 6 7 14 7 3 4 3 5 6 7 7 8 5 5 5 8 5 5 1 7 7 8 3 3 5 3 4 6 9 7
5 8 11 14 17 19 22 24 26 29 31 33 34 31 27 9 10 11 11 16 3 3 6 4 5 8 10 6 4 6 5 3 1 4 8 10 2 4 4 1 2 1 6 6 6 7 9
4 7 11 14 16 19 21 24 26 30 33 35 37 33 22 9 4 6 15 4 4 4 1 7 6 8 13 9 7 7 9 8 5 5 5 4 2 3 3 7 5 4 6 6 4 4 5
4 7 10 12 15 18 21 24 27 30 34 37 37 30 12 10 7 5 6 6 5 4 6 2 3 8 12 9 7 6 7 7 2 5 5 4 6 4 7 4 5 5 5 4 7 8 9
4 5 7 10 14 17 20 24 27 30 35 38 34 17 8 3 5 6 5 4 5 4 3 4 4 10 10 10 4 8 7 4 2 1 4 2 3 3 8 7 4 3 5 3 7 4 7
5 5 6 9 12 16 19 23 26 30 35 36 22 12 4 9 3 8 6 5 5 4 6 3 7 9 12 13 12 9 9 3 5 0 2 1 3 0 2 3 7 5 3 5 3 2 3
6 6 6 8 10 13 18 21 25 29 34 29 11 5 7 1 7 6 7 6 6 7 6 4 5 5 6 7 12 9 6 4 3 4 3 2 3 5 4 4 5 1 1 3 3 2 1
6 7 7 7 8 12 16 20 23 27 33 18 7 4 4 2 4 4 9 5 6 9 7 6 6 9 6 6 7 7 7 2 4 3 3 2 1 2 3 4 4 4 3 3 1 2 0
7 7 8 8 8 10 14 18 22 25 25 13 7 4 3 4 6 8 8 9 10 10 5 4 5 4 2 5 4 7 5 3 5 3 5 5 3 3 5 6 4 1 3 3 5 2 3
7 7 7 8 8 9 13 17 21 24 26 6 3 3 2 2 7 5 7 14 13 9 14 15 13 9 5 6 2 8 7 4 4 4 3 2 2 4 3 5 2 2 1 2 1 2 3
6 8 8 8 9 9 11 15 20 23 23 3 2 3 5 3 4 9 12 9 10 11 13 8 7 13 8 5 6 6 7 10 7 7 3 2 4 6 7 6 6 5 3 3 3 1 2
6 8 9 8 8 8 9 13 18 22 19 3 4 3 5 6 9 8 6 11 14 8 9 12 12 4 9 5 4 11 11 7 5 8 5 2 5 9 7 6 5 5 6 7 5 5 4
7 7 9 8 9 8 7 11 15 19 15 5 6 5 3 6 5 5 3 10 7 4 8 9 7 5 6 4 6 12 5 8 8 10 7 5 7 6 5 4 2 3 3 2 4 1 3
6 7 8 9 8 8 6 8 11 14 13 5 6 5 2 4 5 3 7 12 12 12 11 7 5 5 5 17 19 16 15 12 10 7 3 8 7 2 4 5 2 4 3 1 2 2 2
7 7 7 8 8 7 6 7 9 11 12 9 7 3 2 5 7 12 10 10 12 11 14 11 4 1 13 10 9 7 5 6 7 6 4 5 4 3 3 4 4 3 5 5 4 3 3
7 6 7 8 8 7 7 6 8 11 13 11 4 4 4 5 4 12 6 10 7 4 5 3 2 13 3 3 3 4 4 4 5 5 4 5 2 2 3 3 2 4 3 3 4 3 7
7 7 8 8 8 8 7 6 7 10 13 11 3 2 5 5 5 3 2 6 6 7 5 2 9 4 3 3 3 3 3 2 6 7 7 5 3 4 3 1 4 4 3 3 4 5 7
7 7 8 8 8 9 7 7 7 9 12 11 8 4 7 5 13 8 3 5 8 6 5 4 4 4 3 4 3 3 3 3 3 4 5 5 5 3 3 3 3 3 4 2 8 10 10
7 7 8 8 9 9 8 7 7 8 10 11 5 6 11 10 7 14 20 29 21 26 11 4 5 2 2 2 1 3 3 4 5 4 2 4 1 4 5 5 7 8 13 11 11 11 10
Wind_Direction
53 42 33 24 22 11 4 1 357 354 352 348 343 341 338 337 334 332 332 331 332 332 335 335 338 331 324 250 271 60 101 168 183 212 228 219 239 254 258 261 248 246 274 278 214 182 183
48 38 30 21 16 11 4 360 355 351 348 344 340 336 333 331 330 328 327 326 327 326 327 327 330 328 282 278 133 95 266 186 212 218 202 227 277 308 267 275 269 10 272 189 175 152 160
54 46 35 28 23 18 12 8 2 355 351 346 341 335 331 326 323 322 322 322 322 320 321 314 319 316 264 275 191 294 197 204 205 229 215 213 291 253 328 238 160 186 220 194 192 179 156
56 51 44 38 33 28 22 15 8 3 357 351 347 341 337 329 322 319 319 320 315 317 314 303 300 281 263 237 278 266 216 199 200 210 249 278 298 284 278 68 210 242 250 237 151 187 150
52 47 43 37 32 27 21 16 12 5 360 355 349 344 339 333 326 322 320 316 313 311 305 288 288 261 267 274 214 48 187 181 178 200 211 239 247 287 221 241 242 209 266 217 186 204 153
52 46 40 35 32 27 21 15 11 7 3 357 353 347 342 336 331 326 323 316 315 305 291 267 250 247 240 125 326 284 203 201 200 177 184 209 228 249 220 242 269 299 240 241 258 168 220
48 43 37 31 28 24 19 13 10 6 2 358 353 349 343 336 336 330 332 340 274 191 282 270 301 285 276 325 253 180 177 174 189 223 253 176 266 255 314 315 289 282 271 268 266 205 250
42 38 33 27 24 20 15 10 7 4 1 358 353 349 344 339 335 340 358 38 44 333 303 259 249 258 262 280 266 188 176 194 201 236 204 234 254 344 316 280 259 242 257 264 262 285 226
35 34 31 25 20 15 12 8 5 2 359 357 354 350 344 339 342 10 31 58 337 298 263 278 228 245 217 186 213 194 187 195 218 228 246 282 293 304 281 284 259 241 259 292 299 147 228
21 20 19 18 15 13 9 5 2 359 357 355 353 348 345 340 27 339 51 339 330 207 275 183 203 174 163 202 202 170 200 242 200 255 265 283 51 253 297 281 274 267 341 277 276 265 300
6 11 12 11 9 8 5 3 359 356 353 351 349 345 340 343 302 300 324 326 333 221 299 136 137 131 165 212 125 153 165 207 248 215 239 168 280 304 296 20 293 358 331 284 281 278 293
346 359 4 7 5 4 1 359 356 353 350 348 343 340 334 338 283 271 316 323 236 233 245 173 143 175 177 183 152 128 162 182 360 234 232 272 305 282 342 311 302 311 264 242 258 280 258
312 345 354 360 1 359 358 356 353 350 348 345 339 334 321 275 264 301 320 260 218 194 108 172 188 181 193 178 158 176 172 175 241 242 208 212 144 131 352 262 178 247 298 306 281 254 273
303 323 340 350 354 354 354 353 351 349 346 344 337 333 309 255 271 304 306 215 217 205 236 21 228 195 194 169 184 170 175 187 158 240 276 274 175 5 360 6 326 331 308 285 283 298 301
340 321 322 337 348 350 352 352 350 349 345 345 340 328 306 301 280 222 239 201 220 243 355 298 210 208 193 189 204 187 217 217 142 237 262 241 157 120 67 46 315 92 276 19 278 243 266
343 330 323 327 341 346 350 351 350 350 346 347 334 326 324 319 198 190 221 247 248 257 328 279 247 224 206 187 191 200 186 152 155 174 262 182 246 348 113 241 73 358 49 248 226 265 264
356 340 325 322 335 342 349 351 350 352 347 353 325 317 8 27 156 212 215 236 275 279 289 256 264 251 242 180 205 191 168 139 186 145 204 201 265 122 209 23 1 327 222 47 88 39 288
348 350 342 329 333 339 348 351 351 356 352 357 332 301 2 148 212 211 230 224 332 281 278 265 274 265 231 179 172 169 176 54 157 179 191 107 272 284 41 102 56 41 62 84 222 159 279
347 344 344 340 335 337 347 350 351 357 359 334 323 285 332 210 225 222 234 259 258 279 273 314 283 272 213 169 153 149 140 84 154 166 170 167 202 222 174 176 182 45 55 74 109 128 199
345 343 336 342 338 337 345 349 352 355 353 347 297 311 148 244 278 278 269 254 254 253 264 262 271 278 182 158 110 154 137 132 127 118 71 150 125 290 334 62 60 151 119 168 327 248 168
336 344 339 338 344 338 343 350 353 356 354 324 249 296 23 303 210 330 308 284 273 231 232 264 242 238 206 154 144 144 137 135 134 152 126 202 129 115 90 93 89 77 64 144 189 283 286
328 336 340 338 340 338 340 351 356 359 6 29 352 335 341 293 288 283 269 244 250 235 247 222 235 239 205 201 205 176 159 178 167 174 159 169 135 140 103 104 99 102 96 100 107 124 124
321 326 334 336 338 340 334 349 360 3 20 8 352 298 275 283 286 281 286 253 237 279 247 263 293 261 202 88 78 106 95 114 141 156 151 157 151 189 143 142 131 196 198 160 141 110 313
310 315 324 334 333 339 330 342 358 8 25 358 326 301 276 284 295 340 285 306 282 268 276 296 311 240 111 122 104 95 92 101 110 92 152 150 141 144 132 173 223 109 142 204 144 129 89
307 309 320 326 327 334 324 327 347 358 360 339 321 280 292 297 313 301 328 310 300 264 245 260 269 247 155 147 117 120 116 135 98 59 120 173 149 122 163 194 127 160 178 182 231 112 51
305 308 310 317 323 322 323 316 334 346 352 351 319 275 293 309 226 333 317 301 296 323 215 227 155 144 242 191 157 179 171 130 154 132 103 124 103 142 182 233 162 93 124 192 235 202 44
291 302 307 308 314 318 320 309 322 335 347 352 297 322 300 280 273 15 309 304 323 328 282 199 147 208 228 187 165 162 133 128 165 175 173 159 154 184 166 127 110 85 80 214 258 65 80
281 296 301 305 309 317 314 309 309 327 342 354 314 235 330 286 287 260 249 270 317 289 295 46 202 201 185 194 198 133 150 145 139 127 173 174 171 152 176 130 139 79 190 311 104 103 95
280 289 296 301 308 313 310 305 298 317 334 349 311 300 302 256 275 286 265 266 251 254 280 274 332 292 30 153 165 141 136 160 157 152 164 162 1 121 360 81 83 81 93 96 109 113 101
Height
870 869 869 868 866 865 865 862 860 857 853 850 847 844 841 837 833 828 825 821 816 811 807 803 799 797 795 788 782 782 782 784 785 786 783 779 777 776 778 774 775 777 771 774 774 775 772
870 870 869 870 867 865 865 861 859 855 852 849 846 842 839 835 831 826 822 817 813 808 805 801 799 797 795 790 780 781 782 783 784 784 781 780 777 775 775 775 776 774 774 775 775 776 778
872 871 871 870 868 866 864 862 859 856 853 849 845 841 838 834 829 824 818 813 809 804 802 798 797 797 794 782 780 781 780 782 782 782 779 780 779 777 773 775 774 774 776 776 775 775 778
873 872 872 872 870 867 865 863 860 857 854 850 845 840 836 832 826 821 815 809 804 800 797 796 796 797 785 779 779 779 779 780 781 781 782 781 781 777 776 774 775 776 775 775 767 774 779
874 875 874 873 870 867 866 864 860 857 854 850 845 840 835 830 823 817 811 804 799 796 795 795 796 795 780 778 777 777 778 777 779 780 780 782 780 777 776 779 779 776 779 775 769 768 774
876 876 875 873 870 869 866 864 861 858 853 850 844 839 832 827 821 815 808 799 795 795 794 795 795 796 778 775 776 775 776 777 776 777 778 778 776 778 775 777 786 777 778 771 773 764 773
877 876 875 873 871 869 866 864 861 857 853 850 844 837 831 826 819 814 806 799 795 793 792 783 780 780 775 776 775 774 774 774 774 775 780 777 782 781 774 775 777 778 779 776 764 760 772
877 877 875 873 871 869 867 864 861 857 853 848 843 837 830 824 819 814 810 808 815 818 799 783 780 779 776 779 776 770 774 773 775 780 778 782 783 773 773 776 778 777 778 773 762 761 774
879 877 876 874 872 869 866 864 860 856 852 847 841 836 830 822 817 817 816 816 817 815 805 776 774 772 770 775 769 766 769 768 773 778 778 784 776 775 778 773 778 773 774 770 773 770 768
878 877 875 874 871 869 866 863 860 857 852 846 841 836 830 822 822 820 817 817 815 814 795 769 768 765 770 766 769 763 764 767 772 778 777 778 773 778 774 773 772 775 766 769 772 774 773
878 877 875 873 871 868 865 863 859 855 851 846 841 837 832 828 826 822 820 817 813 814 808 768 765 763 764 764 760 766 765 767 773 773 779 777 777 776 775 776 772 774 771 771 771 772 775
877 877 875 873 871 868 865 862 858 854 850 845 840 836 831 829 827 821 817 814 814 807 812 767 760 764 767 762 762 763 763 765 767 772 772 772 768 773 772 774 773 772 772 771 771 771 784
877 876 875 873 870 868 865 862 858 853 848 842 835 830 827 827 821 818 816 813 806 815 769 766 764 761 760 765 766 763 768 771 774 783 779 772 773 771 773 773 771 769 772 784 789 784 791
875 874 874 873 871 869 866 862 857 852 846 840 832 824 821 820 819 818 818 807 819 775 768 760 759 759 764 762 763 767 770 774 777 776 776 780 786 778 778 779 779 778 778 789 805 792 787
875 874 874 873 871 868 865 861 857 851 845 837 828 823 819 818 815 818 814 818 790 774 769 768 761 763 763 761 762 767 769 769 776 779 783 784 785 784 784 780 782 778 781 784 790 789 795
874 874 873 872 871 869 865 862 857 851 844 836 830 823 818 816 815 817 806 809 787 779 775 768 768 756 759 758 765 765 771 779 781 782 781 782 788 788 787 784 781 783 788 793 787 816 814
873 873 873 872 871 869 866 862 857 851 844 836 831 820 818 815 817 809 803 793 788 778 777 775 764 761 756 759 755 761 769 783 781 782 780 780 786 789 786 791 795 789 791 797 800 827 819
874 872 872 871 869 868 865 861 858 852 844 838 834 817 819 819 814 799 797 796 795 780 772 772 767 761 758 760 763 768 773 774 781 778 780 784 786 791 795 798 795 795 801 806 823 827 824
872 871 871 869 869 866 864 861 858 853 848 845 835 826 818 818 800 798 796 796 790 784 775 773 766 758 758 762 773 772 776 785 783 781 782 785 789 795 797 799 799 800 806 808 813 821 832
871 870 870 869 867 865 863 861 857 853 848 846 840 825 812 818 805 802 794 792 789 780 777 773 769 761 762 765 766 775 778 784 785 784 795 787 792 790 792 798 800 805 810 810 810 817 818
871 870 868 867 865 864 863 860 857 852 847 845 839 827 829 817 809 814 805 790 785 783 771 767 761 760 756 766 768 772 775 783 785 795 789 785 796 797 801 803 803 808 809 809 810 811 818
869 868 867 866 865 864 862 860 857 853 847 845 845 844 838 832 820 815 810 793 783 774 774 763 764 754 753 756 752 767 768 773 777 786 787 790 801 799 809 807 807 814 810 809 811 812 813
867 867 866 865 864 862 861 860 858 854 850 849 848 846 844 827 816 813 809 792 778 780 768 765 766 759 757 759 756 753 764 767 772 781 787 790 796 797 805 808 810 816 817 811 815 812 810
866 866 865 863 863 862 860 860 858 856 854 855 852 850 844 824 817 811 811 804 789 781 779 769 765 760 769 763 762 766 770 775 779 785 783 790 793 796 805 809 821 814 811 811 812 814 812
864 864 863 862 861 861 860 859 858 856 855 853 851 850 844 832 823 816 807 803 790 777 776 773 766 764 765 760 767 776 780 783 788 790 788 785 791 803 808 804 816 813 812 812 812 818 816
863 862 862 861 860 859 859 858 857 855 854 852 850 848 846 837 819 820 811 805 791 774 770 768 770 770 769 762 766 772 780 776 789 794 793 793 790 798 805 802 816 808 808 809 807 823 822
861 861 860 860 859 858 857 856 855 854 852 851 849 848 845 836 821 820 818 812 798 788 774 769 770 769 769 761 766 771 779 778 786 789 795 796 799 803 806 803 811 810 812 809 824 832 825
859 859 858 858 857 856 855 854 854 853 851 850 848 846 845 833 819 816 817 810 806 795 777 774 770 767 763 764 764 773 773 781 783 784 789 791 795 802 802 806 822 812 811 816 825 828 829
857 857 856 856 855 854 853 852 852 851 850 848 846 845 843 839 819 813 809 806 806 802 804 783 773 766 763 763 767 771 775 783 780 790 792 796 794 800 802 809 815 814 818 821 825 830 834